Time,TemperatureF,DewpointF,PressureIn,WindDirection,WindDirectionDegrees,WindSpeedMPH,WindSpeedGustMPH,Humidity,HourlyPrecipIn,Conditions,Clouds,dailyrainin,SoftwareType,DateUTC
2013-03-07 00:00:00,36.6,35.0,29.75,SW,225,0.0,1.9,89,0.00,,,0.00,Rainwise IP-100,2013-03-07 05:00:00,
2013-03-07 00:01:00,36.6,35.0,29.75,SW,225,0.0,1.9,89,0.00,,,0.00,Rainwise IP-100,2013-03-07 05:01:00,
2013-03-07 00:04:00,36.5,35.0,29.75,WSW,247,0.0,2.8,89,0.00,,,0.00,Rainwise IP-100,2013-03-07 05:04:00,
2013-03-07 00:06:00,36.5,35.0,29.74,WSW,247,0.0,2.8,89,0.00,,,0.00,Rainwise IP-100,2013-03-07 05:06:00,
2013-03-07 00:12:00,36.5,33.0,29.74,WSW,247,0.0,0.0,88,0.00,,,0.00,Rainwise IP-100,2013-03-07 05:12:00,
2013-03-07 00:17:00,36.5,33.0,29.74,WSW,247,0.0,1.9,88,0.00,,,0.00,Rainwise IP-100,2013-03-07 05:17:00,
2013-03-07 00:22:00,36.5,33.0,29.75,WSW,247,1.2,2.1,88,0.00,,,0.00,Rainwise IP-100,2013-03-07 05:22:00,
2013-03-07 00:27:00,36.5,33.0,29.75,WSW,247,1.4,2.3,88,0.00,,,0.00,Rainwise IP-100,2013-03-07 05:27:00,
2013-03-07 00:32:00,36.6,33.0,29.75,WSW,247,2.1,3.5,87,0.00,,,0.00,Rainwise IP-100,2013-03-07 05:32:00,
2013-03-07 00:37:00,36.8,33.0,29.75,SW,225,0.0,2.6,87,0.00,,,0.00,Rainwise IP-100,2013-03-07 05:37:00,
2013-03-07 00:42:00,37.0,33.0,29.75,SW,225,0.0,2.1,87,0.00,,,0.00,Rainwise IP-100,2013-03-07 05:42:00,
2013-03-07 00:47:00,37.0,33.0,29.75,WSW,247,1.6,2.6,86,0.06,,,0.01,Rainwise IP-100,2013-03-07 05:47:00,
2013-03-07 00:52:00,37.0,33.0,29.75,WSW,247,0.0,3.3,86,0.06,,,0.01,Rainwise IP-100,2013-03-07 05:52:00,
2013-03-07 00:57:00,37.1,33.0,29.75,WSW,247,0.0,2.1,86,0.00,,,0.01,Rainwise IP-100,2013-03-07 05:57:00,
2013-03-07 01:02:00,37.1,33.0,29.75,SSW,202,0.0,3.5,86,0.00,,,0.01,Rainwise IP-100,2013-03-07 06:02:00,
2013-03-07 01:08:00,37.1,33.0,29.75,SW,225,0.0,4.4,86,0.00,,,0.01,Rainwise IP-100,2013-03-07 06:08:00,
2013-03-07 01:13:00,37.2,33.0,29.76,WSW,247,0.0,4.4,86,0.00,,,0.01,Rainwise IP-100,2013-03-07 06:13:00,
2013-03-07 01:18:00,37.2,33.0,29.75,WSW,247,0.0,3.0,85,0.00,,,0.01,Rainwise IP-100,2013-03-07 06:18:00,
2013-03-07 01:23:00,37.2,33.0,29.75,WSW,247,1.2,3.5,85,0.00,,,0.01,Rainwise IP-100,2013-03-07 06:23:00,
2013-03-07 01:28:00,37.3,33.0,29.75,SW,225,2.3,4.0,85,0.00,,,0.01,Rainwise IP-100,2013-03-07 06:28:00,
2013-03-07 01:33:00,37.3,33.0,29.75,WSW,247,0.0,5.1,85,0.00,,,0.01,Rainwise IP-100,2013-03-07 06:33:00,
2013-03-07 01:38:00,37.4,32.0,29.76,SW,225,1.9,3.7,84,0.06,,,0.02,Rainwise IP-100,2013-03-07 06:38:00,
2013-03-07 01:43:00,37.4,32.0,29.75,SW,225,0.0,3.7,84,0.06,,,0.02,Rainwise IP-100,2013-03-07 06:43:00,
2013-03-07 01:48:00,37.3,32.0,29.76,SW,225,1.2,4.2,84,0.00,,,0.02,Rainwise IP-100,2013-03-07 06:48:00,
2013-03-07 01:53:00,37.3,32.0,29.75,WSW,247,1.6,3.3,84,0.00,,,0.02,Rainwise IP-100,2013-03-07 06:53:00,
2013-03-07 01:58:00,37.3,32.0,29.75,WSW,247,0.0,3.5,84,0.00,,,0.02,Rainwise IP-100,2013-03-07 06:58:00,
2013-03-07 02:03:00,37.2,32.0,29.75,WSW,247,1.4,3.0,84,0.00,,,0.02,Rainwise IP-100,2013-03-07 07:03:00,
2013-03-07 02:09:00,37.2,32.0,29.75,SW,225,1.4,4.2,84,0.00,,,0.02,Rainwise IP-100,2013-03-07 07:09:00,
2013-03-07 02:14:00,37.1,32.0,29.75,WSW,247,3.3,4.2,84,0.00,,,0.02,Rainwise IP-100,2013-03-07 07:14:00,
2013-03-07 02:19:00,37.1,32.0,29.75,SW,225,0.0,3.5,84,0.00,,,0.02,Rainwise IP-100,2013-03-07 07:19:00,
2013-03-07 02:24:00,37.1,32.0,29.75,SW,225,0.0,4.0,84,0.00,,,0.02,Rainwise IP-100,2013-03-07 07:24:00,
2013-03-07 02:29:00,36.9,33.0,29.74,WSW,247,1.9,2.6,85,0.00,,,0.02,Rainwise IP-100,2013-03-07 07:29:00,
2013-03-07 02:34:00,36.7,33.0,29.74,WNW,292,0.0,3.5,85,0.00,,,0.02,Rainwise IP-100,2013-03-07 07:34:00,
2013-03-07 02:39:00,36.5,33.0,29.75,SW,225,4.7,4.7,85,0.00,,,0.02,Rainwise IP-100,2013-03-07 07:39:00,
2013-03-07 02:44:00,36.4,32.0,29.75,West,270,3.3,7.2,85,0.00,,,0.02,Rainwise IP-100,2013-03-07 07:44:00,
2013-03-07 02:49:00,36.4,32.0,29.75,SW,225,1.9,4.2,84,0.00,,,0.02,Rainwise IP-100,2013-03-07 07:49:00,
2013-03-07 02:54:00,36.3,32.0,29.75,WSW,247,1.9,3.7,84,0.00,,,0.02,Rainwise IP-100,2013-03-07 07:54:00,
2013-03-07 02:59:00,36.2,32.0,29.75,WSW,247,0.0,4.9,84,0.00,,,0.02,Rainwise IP-100,2013-03-07 07:59:00,
2013-03-07 03:04:00,36.1,32.0,29.75,SSW,202,0.0,4.0,84,0.00,,,0.02,Rainwise IP-100,2013-03-07 08:04:00,
2013-03-07 03:10:00,36.0,32.0,29.76,SW,225,0.0,3.5,84,0.00,,,0.02,Rainwise IP-100,2013-03-07 08:10:00,
2013-03-07 03:15:00,35.8,32.0,29.76,SW,225,0.0,1.6,84,0.00,,,0.02,Rainwise IP-100,2013-03-07 08:15:00,
2013-03-07 03:20:00,35.7,32.0,29.76,SW,225,2.1,4.0,84,0.00,,,0.02,Rainwise IP-100,2013-03-07 08:20:00,
2013-03-07 03:25:00,35.6,32.0,29.77,WSW,247,1.4,2.3,85,0.00,,,0.02,Rainwise IP-100,2013-03-07 08:25:00,
2013-03-07 03:30:00,35.4,31.0,29.76,SSW,202,0.0,2.8,85,0.00,,,0.02,Rainwise IP-100,2013-03-07 08:30:00,
2013-03-07 03:35:00,35.2,31.0,29.76,WSW,247,0.0,2.3,86,0.00,,,0.02,Rainwise IP-100,2013-03-07 08:35:00,
2013-03-07 03:40:00,35.1,31.0,29.77,WSW,247,0.0,1.9,86,0.00,,,0.02,Rainwise IP-100,2013-03-07 08:40:00,
2013-03-07 03:45:00,34.8,31.0,29.77,WSW,247,0.0,1.6,86,0.00,,,0.02,Rainwise IP-100,2013-03-07 08:45:00,
2013-03-07 03:50:00,34.7,31.0,29.77,SW,225,0.0,1.9,86,0.00,,,0.02,Rainwise IP-100,2013-03-07 08:50:00,
2013-03-07 03:55:00,34.6,31.0,29.77,SW,225,1.2,2.6,86,0.00,,,0.02,Rainwise IP-100,2013-03-07 08:55:00,
2013-03-07 04:00:00,34.6,31.0,29.77,WSW,247,0.0,1.4,86,0.00,,,0.02,Rainwise IP-100,2013-03-07 09:00:00,
2013-03-07 04:05:00,34.4,31.0,29.77,WSW,247,0.0,1.6,87,0.00,,,0.02,Rainwise IP-100,2013-03-07 09:05:00,
2013-03-07 04:11:00,34.3,31.0,29.77,SW,225,0.0,1.6,87,0.00,,,0.02,Rainwise IP-100,2013-03-07 09:11:00,
2013-03-07 04:16:00,34.2,31.0,29.77,SW,225,0.0,1.6,87,0.00,,,0.02,Rainwise IP-100,2013-03-07 09:16:00,
2013-03-07 04:21:00,34.0,31.0,29.77,SW,225,0.0,2.6,87,0.00,,,0.02,Rainwise IP-100,2013-03-07 09:21:00,
2013-03-07 04:26:00,34.0,31.0,29.77,SW,225,0.0,2.1,87,0.00,,,0.02,Rainwise IP-100,2013-03-07 09:26:00,
2013-03-07 04:31:00,33.9,32.0,29.78,SW,225,0.0,1.6,88,0.00,,,0.02,Rainwise IP-100,2013-03-07 09:31:00,
2013-03-07 04:36:00,33.8,32.0,29.77,SW,225,0.0,1.6,88,0.00,,,0.02,Rainwise IP-100,2013-03-07 09:36:00,
2013-03-07 04:41:00,33.7,32.0,29.78,SW,225,0.0,0.0,88,0.00,,,0.02,Rainwise IP-100,2013-03-07 09:41:00,
2013-03-07 04:46:00,33.7,32.0,29.78,SW,225,0.0,1.6,88,0.00,,,0.02,Rainwise IP-100,2013-03-07 09:46:00,
2013-03-07 04:51:00,33.6,32.0,29.78,SW,225,1.2,2.1,88,0.00,,,0.02,Rainwise IP-100,2013-03-07 09:51:00,
2013-03-07 04:56:00,33.6,31.0,29.78,SW,225,0.0,2.8,87,0.00,,,0.02,Rainwise IP-100,2013-03-07 09:56:00,
2013-03-07 05:01:00,33.7,31.0,29.78,SW,225,0.0,2.1,87,0.00,,,0.02,Rainwise IP-100,2013-03-07 10:01:00,
2013-03-07 05:07:00,33.8,31.0,29.79,SW,225,0.0,1.9,87,0.00,,,0.02,Rainwise IP-100,2013-03-07 10:07:00,
2013-03-07 05:12:00,33.8,31.0,29.79,SW,225,0.0,0.0,87,0.00,,,0.02,Rainwise IP-100,2013-03-07 10:12:00,
2013-03-07 05:17:00,34.0,31.0,29.78,West,270,0.0,2.3,86,0.00,,,0.02,Rainwise IP-100,2013-03-07 10:17:00,
2013-03-07 05:22:00,34.2,31.0,29.79,West,270,0.0,1.6,86,0.00,,,0.02,Rainwise IP-100,2013-03-07 10:22:00,
2013-03-07 05:27:00,34.3,31.0,29.79,WSW,247,0.0,2.8,85,0.00,,,0.02,Rainwise IP-100,2013-03-07 10:27:00,
2013-03-07 05:32:00,34.5,31.0,29.79,WSW,247,0.0,2.1,84,0.00,,,0.02,Rainwise IP-100,2013-03-07 10:32:00,
2013-03-07 05:37:00,34.6,31.0,29.79,SW,225,0.0,4.2,84,0.00,,,0.02,Rainwise IP-100,2013-03-07 10:37:00,
2013-03-07 05:42:00,34.7,31.0,29.80,SW,225,1.2,4.4,83,0.00,,,0.02,Rainwise IP-100,2013-03-07 10:42:00,
2013-03-07 05:47:00,34.7,31.0,29.80,SW,225,1.2,2.1,83,0.00,,,0.02,Rainwise IP-100,2013-03-07 10:47:00,
2013-03-07 05:52:00,34.6,31.0,29.80,SW,225,0.0,2.1,83,0.00,,,0.02,Rainwise IP-100,2013-03-07 10:52:00,
2013-03-07 05:57:00,34.4,31.0,29.80,SW,225,0.0,1.9,83,0.00,,,0.02,Rainwise IP-100,2013-03-07 10:57:00,
2013-03-07 06:02:00,34.2,31.0,29.80,SW,225,0.0,2.1,83,0.00,,,0.02,Rainwise IP-100,2013-03-07 11:02:00,
2013-03-07 06:08:00,33.9,31.0,29.80,SW,225,0.0,1.6,84,0.00,,,0.02,Rainwise IP-100,2013-03-07 11:08:00,
2013-03-07 06:13:00,33.7,31.0,29.80,SW,225,0.0,1.4,84,0.00,,,0.02,Rainwise IP-100,2013-03-07 11:13:00,
2013-03-07 06:18:00,33.5,31.0,29.80,SW,225,1.2,2.3,85,0.00,,,0.02,Rainwise IP-100,2013-03-07 11:18:00,
2013-03-07 06:23:00,33.3,29.0,29.80,SW,225,0.0,1.4,85,0.00,,,0.02,Rainwise IP-100,2013-03-07 11:23:00,
2013-03-07 06:28:00,33.2,29.0,29.80,SW,225,0.0,1.6,86,0.00,,,0.02,Rainwise IP-100,2013-03-07 11:28:00,
2013-03-07 06:33:00,33.0,29.0,29.80,SW,225,0.0,1.6,86,0.00,,,0.02,Rainwise IP-100,2013-03-07 11:33:00,
2013-03-07 06:38:00,32.9,29.0,29.80,WSW,247,1.4,1.9,86,0.00,,,0.02,Rainwise IP-100,2013-03-07 11:38:00,
2013-03-07 06:44:00,32.9,31.0,29.80,WSW,247,0.0,2.6,87,0.00,,,0.02,Rainwise IP-100,2013-03-07 11:44:00,
2013-03-07 06:49:00,32.9,31.0,29.80,WSW,247,0.0,1.6,87,0.00,,,0.02,Rainwise IP-100,2013-03-07 11:49:00,
2013-03-07 06:54:00,32.9,31.0,29.81,SW,225,0.0,2.1,87,0.00,,,0.02,Rainwise IP-100,2013-03-07 11:54:00,
2013-03-07 06:59:00,32.9,31.0,29.81,WSW,247,1.6,1.9,87,0.00,,,0.02,Rainwise IP-100,2013-03-07 11:59:00,
2013-03-07 07:04:00,32.9,31.0,29.81,WSW,247,0.0,2.3,87,0.00,,,0.02,Rainwise IP-100,2013-03-07 12:04:00,
2013-03-07 07:09:00,33.0,31.0,29.81,SW,225,1.4,1.9,87,0.00,,,0.02,Rainwise IP-100,2013-03-07 12:09:00,
2013-03-07 07:14:00,33.0,29.0,29.82,SW,225,0.0,2.3,86,0.00,,,0.02,Rainwise IP-100,2013-03-07 12:14:00,
2013-03-07 07:19:00,33.2,29.0,29.82,SW,225,0.0,2.6,86,0.00,,,0.02,Rainwise IP-100,2013-03-07 12:19:00,
2013-03-07 07:24:00,33.4,29.0,29.82,WSW,247,1.6,1.9,86,0.00,,,0.02,Rainwise IP-100,2013-03-07 12:24:00,
2013-03-07 07:29:00,33.6,31.0,29.82,WSW,247,2.1,2.8,85,0.00,,,0.02,Rainwise IP-100,2013-03-07 12:29:00,
2013-03-07 07:34:00,33.9,31.0,29.82,WSW,247,0.0,2.1,85,0.00,,,0.02,Rainwise IP-100,2013-03-07 12:34:00,
2013-03-07 07:40:00,34.2,31.0,29.82,SW,225,1.2,2.1,84,0.00,,,0.02,Rainwise IP-100,2013-03-07 12:40:00,
2013-03-07 07:45:00,34.5,31.0,29.83,WSW,247,1.9,2.6,83,0.00,,,0.02,Rainwise IP-100,2013-03-07 12:45:00,
2013-03-07 07:50:00,35.2,29.0,29.82,WSW,247,1.9,2.3,82,0.00,,,0.02,Rainwise IP-100,2013-03-07 12:50:00,
2013-03-07 07:55:00,36.0,31.0,29.83,WSW,247,0.0,3.5,81,0.00,,,0.02,Rainwise IP-100,2013-03-07 12:55:00,
2013-03-07 08:00:00,36.7,31.0,29.83,WSW,247,0.0,4.0,79,0.00,,,0.02,Rainwise IP-100,2013-03-07 13:00:00,
2013-03-07 08:05:00,37.4,31.0,29.83,SW,225,0.0,3.3,78,0.00,,,0.02,Rainwise IP-100,2013-03-07 13:05:00,
2013-03-07 08:10:00,38.0,31.0,29.83,SW,225,2.6,3.7,76,0.00,,,0.02,Rainwise IP-100,2013-03-07 13:10:00,
2013-03-07 08:15:00,38.6,32.0,29.83,SW,225,0.0,5.4,75,0.00,,,0.02,Rainwise IP-100,2013-03-07 13:15:00,
2013-03-07 08:20:00,39.1,32.0,29.84,SW,225,0.0,3.7,74,0.00,,,0.02,Rainwise IP-100,2013-03-07 13:20:00,
2013-03-07 08:25:00,39.2,32.0,29.84,SW,225,2.1,6.1,73,0.00,,,0.02,Rainwise IP-100,2013-03-07 13:25:00,
2013-03-07 08:30:00,39.2,31.0,29.84,SSW,202,0.0,6.5,72,0.00,,,0.02,Rainwise IP-100,2013-03-07 13:30:00,
2013-03-07 08:36:00,39.2,31.0,29.84,East,90,0.0,3.7,72,0.06,,,0.03,Rainwise IP-100,2013-03-07 13:36:00,
2013-03-07 08:41:00,39.3,31.0,29.84,SW,225,3.0,3.7,72,0.06,,,0.03,Rainwise IP-100,2013-03-07 13:41:00,
2013-03-07 08:46:00,39.3,31.0,29.84,WNW,292,2.1,8.4,72,0.00,,,0.03,Rainwise IP-100,2013-03-07 13:46:00,
2013-03-07 08:51:00,39.3,31.0,29.84,WSW,247,1.2,8.2,71,0.00,,,0.03,Rainwise IP-100,2013-03-07 13:51:00,
2013-03-07 08:56:00,39.5,32.0,29.85,SSW,202,3.0,5.4,71,0.00,,,0.03,Rainwise IP-100,2013-03-07 13:56:00,
2013-03-07 09:01:00,39.7,32.0,29.84,SSW,202,2.3,4.7,71,0.00,,,0.03,Rainwise IP-100,2013-03-07 14:01:00,
2013-03-07 09:06:00,40.0,32.0,29.84,WSW,247,0.0,4.9,70,0.00,,,0.03,Rainwise IP-100,2013-03-07 14:06:00,
2013-03-07 09:11:00,40.3,31.0,29.85,WSW,247,4.4,5.1,69,0.00,,,0.03,Rainwise IP-100,2013-03-07 14:11:00,
2013-03-07 09:16:00,40.7,32.0,29.85,WSW,247,4.2,4.7,68,0.00,,,0.03,Rainwise IP-100,2013-03-07 14:16:00,
2013-03-07 09:21:00,41.3,31.0,29.85,West,270,2.1,7.0,67,0.00,,,0.03,Rainwise IP-100,2013-03-07 14:21:00,
2013-03-07 09:26:00,41.6,32.0,29.85,WSW,247,2.8,6.3,65,0.00,,,0.03,Rainwise IP-100,2013-03-07 14:26:00,
2013-03-07 09:31:00,41.9,31.0,29.85,SSW,202,2.1,7.0,64,0.00,,,0.03,Rainwise IP-100,2013-03-07 14:31:00,
2013-03-07 09:37:00,42.0,31.0,29.85,WSW,247,2.6,7.7,63,0.06,,,0.04,Rainwise IP-100,2013-03-07 14:37:00,
2013-03-07 09:42:00,42.3,31.0,29.85,WSW,247,1.2,5.8,63,0.06,,,0.04,Rainwise IP-100,2013-03-07 14:42:00,
2013-03-07 09:47:00,42.7,32.0,29.86,SSW,202,1.2,5.4,63,0.00,,,0.04,Rainwise IP-100,2013-03-07 14:47:00,
2013-03-07 09:52:00,43.1,32.0,29.86,WNW,292,2.6,5.8,63,0.00,,,0.04,Rainwise IP-100,2013-03-07 14:52:00,
2013-03-07 09:57:00,43.3,31.0,29.86,WSW,247,0.0,6.5,62,0.00,,,0.04,Rainwise IP-100,2013-03-07 14:57:00,
2013-03-07 10:02:00,43.5,32.0,29.85,WSW,247,1.9,5.8,61,0.00,,,0.04,Rainwise IP-100,2013-03-07 15:02:00,
2013-03-07 10:07:00,43.7,31.0,29.85,West,270,2.1,6.8,60,0.00,,,0.04,Rainwise IP-100,2013-03-07 15:07:00,
2013-03-07 10:12:00,43.8,31.0,29.86,West,270,2.1,8.2,59,0.00,,,0.04,Rainwise IP-100,2013-03-07 15:12:00,
2013-03-07 10:17:00,43.9,31.0,29.86,SW,225,1.6,8.9,58,0.00,,,0.04,Rainwise IP-100,2013-03-07 15:17:00,
2013-03-07 10:22:00,44.2,31.0,29.85,West,270,2.8,7.7,58,0.00,,,0.04,Rainwise IP-100,2013-03-07 15:22:00,
2013-03-07 10:28:00,44.8,31.0,29.85,WSW,247,2.3,7.2,58,0.00,,,0.04,Rainwise IP-100,2013-03-07 15:28:00,
2013-03-07 10:33:00,45.2,31.0,29.86,WSW,247,1.6,6.3,57,0.00,,,0.04,Rainwise IP-100,2013-03-07 15:33:00,
2013-03-07 10:39:00,45.5,31.0,29.86,WSW,247,5.1,9.6,56,0.00,,,0.04,Rainwise IP-100,2013-03-07 15:39:00,
2013-03-07 10:44:00,46.0,31.0,29.85,WSW,247,1.4,5.4,56,0.00,,,0.04,Rainwise IP-100,2013-03-07 15:44:00,
2013-03-07 10:49:00,46.5,32.0,29.85,SW,225,4.2,6.5,55,0.00,,,0.04,Rainwise IP-100,2013-03-07 15:49:00,
2013-03-07 10:54:00,46.9,31.0,29.85,West,270,2.1,7.2,54,0.00,,,0.04,Rainwise IP-100,2013-03-07 15:54:00,
2013-03-07 10:59:00,47.2,31.0,29.85,West,270,2.6,5.6,53,0.00,,,0.04,Rainwise IP-100,2013-03-07 15:59:00,
2013-03-07 11:04:00,47.8,32.0,29.85,WSW,247,0.0,5.1,53,0.00,,,0.04,Rainwise IP-100,2013-03-07 16:04:00,
2013-03-07 11:09:00,48.5,33.0,29.85,SW,225,3.5,6.5,53,0.00,,,0.04,Rainwise IP-100,2013-03-07 16:09:00,
2013-03-07 11:15:00,48.8,32.0,29.86,SW,225,2.6,8.2,51,0.00,,,0.04,Rainwise IP-100,2013-03-07 16:15:00,
2013-03-07 11:20:00,48.6,32.0,29.86,WSW,247,2.8,6.5,50,0.00,,,0.04,Rainwise IP-100,2013-03-07 16:20:00,
2013-03-07 11:25:00,48.6,32.0,29.85,WNW,292,5.4,6.5,51,0.00,,,0.04,Rainwise IP-100,2013-03-07 16:25:00,
2013-03-07 11:30:00,48.7,32.0,29.85,WSW,247,5.1,7.0,50,0.00,,,0.04,Rainwise IP-100,2013-03-07 16:30:00,
2013-03-07 11:35:00,48.8,32.0,29.85,SSW,202,6.3,6.3,50,0.00,,,0.04,Rainwise IP-100,2013-03-07 16:35:00,
2013-03-07 11:41:00,48.9,31.0,29.85,WSW,247,4.0,7.5,49,0.00,,,0.04,Rainwise IP-100,2013-03-07 16:41:00,
2013-03-07 11:46:00,48.9,31.0,29.85,West,270,1.2,8.6,49,0.00,,,0.04,Rainwise IP-100,2013-03-07 16:46:00,
2013-03-07 11:51:00,48.6,31.0,29.85,WSW,247,2.8,8.4,48,0.00,,,0.04,Rainwise IP-100,2013-03-07 16:51:00,
2013-03-07 11:56:00,48.2,29.0,29.85,WSW,247,2.8,8.9,48,0.00,,,0.04,Rainwise IP-100,2013-03-07 16:56:00,
2013-03-07 12:01:00,48.0,29.0,29.84,WSW,247,1.9,7.2,48,0.00,,,0.04,Rainwise IP-100,2013-03-07 17:01:00,
2013-03-07 12:06:00,47.8,31.0,29.84,West,270,1.9,6.5,49,0.00,,,0.04,Rainwise IP-100,2013-03-07 17:06:00,
2013-03-07 12:11:00,47.6,31.0,29.85,WSW,247,4.4,9.8,50,0.00,,,0.04,Rainwise IP-100,2013-03-07 17:11:00,
2013-03-07 12:16:00,47.2,29.0,29.85,WSW,247,1.9,9.1,49,0.00,,,0.04,Rainwise IP-100,2013-03-07 17:16:00,
2013-03-07 12:21:00,46.7,29.0,29.85,NNW,337,0.0,9.3,50,0.00,,,0.04,Rainwise IP-100,2013-03-07 17:21:00,
2013-03-07 12:26:00,46.5,29.0,29.84,WSW,247,1.4,7.9,50,0.00,,,0.04,Rainwise IP-100,2013-03-07 17:26:00,
2013-03-07 12:31:00,46.7,29.0,29.85,WSW,247,2.8,5.8,50,0.00,,,0.04,Rainwise IP-100,2013-03-07 17:31:00,
2013-03-07 12:36:00,46.8,29.0,29.84,West,270,0.0,9.6,50,0.00,,,0.04,Rainwise IP-100,2013-03-07 17:36:00,
2013-03-07 12:42:00,47.0,29.0,29.84,West,270,1.6,7.2,49,0.00,,,0.04,Rainwise IP-100,2013-03-07 17:42:00,
2013-03-07 12:47:00,47.2,29.0,29.84,WSW,247,3.5,4.9,50,0.00,,,0.04,Rainwise IP-100,2013-03-07 17:47:00,
2013-03-07 12:52:00,47.2,29.0,29.84,WNW,292,4.9,9.1,50,0.00,,,0.04,Rainwise IP-100,2013-03-07 17:52:00,
2013-03-07 12:57:00,47.2,29.0,29.84,WSW,247,3.0,5.6,49,0.00,,,0.04,Rainwise IP-100,2013-03-07 17:57:00,
2013-03-07 13:02:00,47.3,31.0,29.84,WSW,247,2.1,6.1,50,0.00,,,0.04,Rainwise IP-100,2013-03-07 18:02:00,
2013-03-07 13:07:00,47.5,31.0,29.83,WSW,247,3.0,10.7,50,0.00,,,0.04,Rainwise IP-100,2013-03-07 18:07:00,
2013-03-07 13:12:00,47.4,29.0,29.83,WSW,247,1.6,7.0,49,0.00,,,0.04,Rainwise IP-100,2013-03-07 18:12:00,
2013-03-07 13:17:00,47.3,29.0,29.83,West,270,3.7,6.1,49,0.00,,,0.04,Rainwise IP-100,2013-03-07 18:17:00,
2013-03-07 13:22:00,47.5,29.0,29.83,WSW,247,3.5,6.5,49,0.00,,,0.04,Rainwise IP-100,2013-03-07 18:22:00,
2013-03-07 13:27:00,47.8,29.0,29.84,WSW,247,4.0,8.6,48,0.00,,,0.04,Rainwise IP-100,2013-03-07 18:27:00,
2013-03-07 13:32:00,47.9,29.0,29.84,SW,225,3.0,8.4,48,0.00,,,0.04,Rainwise IP-100,2013-03-07 18:32:00,
2013-03-07 13:37:00,47.6,29.0,29.84,West,270,1.6,7.7,49,0.00,,,0.04,Rainwise IP-100,2013-03-07 18:37:00,
2013-03-07 13:44:00,47.5,29.0,29.83,WSW,247,0.0,7.0,48,0.00,,,0.04,Rainwise IP-100,2013-03-07 18:44:00,
2013-03-07 13:49:00,47.5,29.0,29.84,SW,225,2.8,5.4,49,0.00,,,0.04,Rainwise IP-100,2013-03-07 18:49:00,
2013-03-07 13:54:00,47.3,29.0,29.83,WSW,247,2.1,8.2,49,0.00,,,0.04,Rainwise IP-100,2013-03-07 18:54:00,
2013-03-07 13:59:00,47.2,29.0,29.83,WSW,247,2.8,5.4,49,0.00,,,0.04,Rainwise IP-100,2013-03-07 18:59:00,
2013-03-07 14:04:00,47.1,28.0,29.83,West,270,3.3,6.8,48,0.00,,,0.04,Rainwise IP-100,2013-03-07 19:04:00,
2013-03-07 14:09:00,47.1,29.0,29.83,South,180,1.6,6.1,49,0.00,,,0.04,Rainwise IP-100,2013-03-07 19:09:00,
2013-03-07 14:14:00,47.2,29.0,29.83,West,270,2.1,5.4,50,0.00,,,0.04,Rainwise IP-100,2013-03-07 19:14:00,
2013-03-07 14:19:00,47.2,29.0,29.83,WSW,247,3.0,9.3,49,0.00,,,0.04,Rainwise IP-100,2013-03-07 19:19:00,
2013-03-07 14:24:00,47.0,29.0,29.84,South,180,1.6,8.9,50,0.00,,,0.04,Rainwise IP-100,2013-03-07 19:24:00,
2013-03-07 14:31:00,46.6,29.0,29.83,SW,225,1.2,8.4,49,0.00,,,0.04,Rainwise IP-100,2013-03-07 19:31:00,
2013-03-07 14:36:00,46.3,29.0,29.83,SSW,202,2.6,6.1,50,0.00,,,0.04,Rainwise IP-100,2013-03-07 19:36:00,
2013-03-07 14:41:00,46.3,29.0,29.83,WSW,247,2.1,5.8,51,0.00,,,0.04,Rainwise IP-100,2013-03-07 19:41:00,
2013-03-07 14:46:00,46.3,29.0,29.83,SW,225,3.3,5.6,52,0.00,,,0.04,Rainwise IP-100,2013-03-07 19:46:00,
2013-03-07 14:51:00,46.3,29.0,29.83,West,270,1.6,7.9,51,0.00,,,0.04,Rainwise IP-100,2013-03-07 19:51:00,
2013-03-07 14:56:00,46.3,29.0,29.84,West,270,3.0,9.3,51,0.00,,,0.04,Rainwise IP-100,2013-03-07 19:56:00,
2013-03-07 15:01:00,46.3,29.0,29.83,WSW,247,1.6,10.3,50,0.00,,,0.04,Rainwise IP-100,2013-03-07 20:01:00,
2013-03-07 15:06:00,46.1,29.0,29.83,WSW,247,1.9,7.0,50,0.00,,,0.04,Rainwise IP-100,2013-03-07 20:06:00,
2013-03-07 15:11:00,45.9,29.0,29.84,WSW,247,3.5,6.1,50,0.00,,,0.04,Rainwise IP-100,2013-03-07 20:11:00,
2013-03-07 15:16:00,45.7,29.0,29.83,SW,225,4.9,6.8,50,0.00,,,0.04,Rainwise IP-100,2013-03-07 20:16:00,
2013-03-07 15:21:00,45.5,29.0,29.83,WNW,292,1.4,7.0,51,0.00,,,0.04,Rainwise IP-100,2013-03-07 20:21:00,
2013-03-07 15:26:00,45.5,29.0,29.84,West,270,1.9,8.4,50,0.00,,,0.04,Rainwise IP-100,2013-03-07 20:26:00,
2013-03-07 15:32:00,45.5,29.0,29.83,West,270,1.4,6.1,50,0.00,,,0.04,Rainwise IP-100,2013-03-07 20:32:00,
2013-03-07 15:37:00,45.6,29.0,29.83,SW,225,2.3,8.4,50,0.00,,,0.04,Rainwise IP-100,2013-03-07 20:37:00,
2013-03-07 15:42:00,45.7,29.0,29.83,WSW,247,1.9,7.9,51,0.00,,,0.04,Rainwise IP-100,2013-03-07 20:42:00,
2013-03-07 15:47:00,45.9,29.0,29.84,SW,225,3.5,6.1,51,0.00,,,0.04,Rainwise IP-100,2013-03-07 20:47:00,
2013-03-07 15:52:00,46.0,29.0,29.83,WSW,247,1.4,6.8,51,0.00,,,0.04,Rainwise IP-100,2013-03-07 20:52:00,
2013-03-07 15:57:00,45.9,29.0,29.83,WSW,247,1.9,7.5,51,0.00,,,0.04,Rainwise IP-100,2013-03-07 20:57:00,
2013-03-07 16:02:00,45.9,29.0,29.83,West,270,2.6,5.4,51,0.00,,,0.04,Rainwise IP-100,2013-03-07 21:02:00,
2013-03-07 16:07:00,45.9,29.0,29.83,WSW,247,4.2,7.2,51,0.00,,,0.04,Rainwise IP-100,2013-03-07 21:07:00,
2013-03-07 16:12:00,45.9,29.0,29.84,WSW,247,1.6,8.2,52,0.00,,,0.04,Rainwise IP-100,2013-03-07 21:12:00,
2013-03-07 16:17:00,46.0,29.0,29.83,West,270,1.6,5.6,51,0.00,,,0.04,Rainwise IP-100,2013-03-07 21:17:00,
2013-03-07 16:22:00,46.0,29.0,29.84,WSW,247,2.1,5.4,51,0.00,,,0.04,Rainwise IP-100,2013-03-07 21:22:00,
2013-03-07 16:27:00,46.0,29.0,29.83,WSW,247,0.0,6.5,51,0.00,,,0.04,Rainwise IP-100,2013-03-07 21:27:00,
2013-03-07 16:33:00,46.0,29.0,29.84,SSW,202,2.1,6.5,51,0.00,,,0.04,Rainwise IP-100,2013-03-07 21:33:00,
2013-03-07 16:38:00,45.9,29.0,29.84,South,180,2.1,6.8,51,0.00,,,0.04,Rainwise IP-100,2013-03-07 21:38:00,
2013-03-07 16:43:00,45.8,29.0,29.84,SSW,202,1.9,7.9,51,0.00,,,0.04,Rainwise IP-100,2013-03-07 21:43:00,
2013-03-07 16:48:00,45.8,29.0,29.84,West,270,1.6,7.5,50,0.00,,,0.04,Rainwise IP-100,2013-03-07 21:48:00,
2013-03-07 16:53:00,45.8,29.0,29.84,SSW,202,1.2,7.5,51,0.00,,,0.04,Rainwise IP-100,2013-03-07 21:53:00,
2013-03-07 16:58:00,45.7,29.0,29.84,WSW,247,0.0,4.7,51,0.00,,,0.04,Rainwise IP-100,2013-03-07 21:58:00,
2013-03-07 17:03:00,45.7,29.0,29.84,WSW,247,3.5,6.3,53,0.00,,,0.04,Rainwise IP-100,2013-03-07 22:03:00,
2013-03-07 17:09:00,45.6,29.0,29.85,WSW,247,2.3,4.2,53,0.00,,,0.04,Rainwise IP-100,2013-03-07 22:09:00,
2013-03-07 17:14:00,45.3,29.0,29.84,SW,225,1.2,4.4,53,0.00,,,0.04,Rainwise IP-100,2013-03-07 22:14:00,
2013-03-07 17:19:00,45.1,29.0,29.84,SW,225,3.5,4.7,53,0.00,,,0.04,Rainwise IP-100,2013-03-07 22:19:00,
2013-03-07 17:24:00,44.8,29.0,29.85,SW,225,1.4,5.6,54,0.00,,,0.04,Rainwise IP-100,2013-03-07 22:24:00,
2013-03-07 17:29:00,44.6,29.0,29.85,WSW,247,1.4,4.2,54,0.00,,,0.04,Rainwise IP-100,2013-03-07 22:29:00,
2013-03-07 17:35:00,44.6,31.0,29.85,SW,225,3.7,5.4,55,0.00,,,0.04,Rainwise IP-100,2013-03-07 22:35:00,
2013-03-07 17:40:00,44.5,31.0,29.85,SW,225,1.6,6.3,56,0.00,,,0.04,Rainwise IP-100,2013-03-07 22:40:00,
2013-03-07 17:45:00,44.5,31.0,29.85,SW,225,0.0,4.4,55,0.00,,,0.04,Rainwise IP-100,2013-03-07 22:45:00,
2013-03-07 17:50:00,44.5,31.0,29.86,WSW,247,1.9,5.4,55,0.00,,,0.04,Rainwise IP-100,2013-03-07 22:50:00,
2013-03-07 17:55:00,44.5,31.0,29.86,SW,225,2.3,5.1,55,0.00,,,0.04,Rainwise IP-100,2013-03-07 22:55:00,
2013-03-07 18:00:00,44.5,31.0,29.86,WSW,247,4.0,4.9,55,0.00,,,0.04,Rainwise IP-100,2013-03-07 23:00:00,
2013-03-07 18:05:00,44.4,29.0,29.86,SW,225,0.0,5.4,56,0.00,,,0.04,Rainwise IP-100,2013-03-07 23:05:00,
2013-03-07 18:10:00,44.2,29.0,29.87,SW,225,1.9,8.6,56,0.00,,,0.04,Rainwise IP-100,2013-03-07 23:10:00,
2013-03-07 18:16:00,44.0,29.0,29.87,WSW,247,1.4,7.5,55,0.00,,,0.04,Rainwise IP-100,2013-03-07 23:16:00,
2013-03-07 18:21:00,43.9,29.0,29.88,SW,225,1.6,6.8,55,0.00,,,0.04,Rainwise IP-100,2013-03-07 23:21:00,
2013-03-07 18:26:00,43.7,29.0,29.88,SSW,202,0.0,5.4,56,0.00,,,0.04,Rainwise IP-100,2013-03-07 23:26:00,
2013-03-07 18:31:00,43.5,31.0,29.88,South,180,1.4,6.1,57,0.00,,,0.04,Rainwise IP-100,2013-03-07 23:31:00,
2013-03-07 18:37:00,43.2,29.0,29.88,SW,225,3.5,5.4,57,0.00,,,0.04,Rainwise IP-100,2013-03-07 23:37:00,
2013-03-07 18:42:00,43.1,29.0,29.88,WSW,247,2.1,6.5,57,0.00,,,0.04,Rainwise IP-100,2013-03-07 23:42:00,
2013-03-07 18:47:00,43.0,29.0,29.88,West,270,2.8,3.7,57,0.00,,,0.04,Rainwise IP-100,2013-03-07 23:47:00,
2013-03-07 18:52:00,42.9,29.0,29.88,SSW,202,0.0,4.4,58,0.00,,,0.04,Rainwise IP-100,2013-03-07 23:52:00,
2013-03-07 18:57:00,42.7,31.0,29.88,SSW,202,1.9,4.4,59,0.00,,,0.04,Rainwise IP-100,2013-03-07 23:57:00,
2013-03-07 19:02:00,42.6,31.0,29.89,WSW,247,1.4,5.1,59,0.00,,,0.04,Rainwise IP-100,2013-03-08 00:02:00,
2013-03-07 19:07:00,42.6,31.0,29.89,WSW,247,0.0,4.2,59,0.00,,,0.04,Rainwise IP-100,2013-03-08 00:07:00,
2013-03-07 19:12:00,42.5,31.0,29.89,WSW,247,1.9,5.1,59,0.00,,,0.04,Rainwise IP-100,2013-03-08 00:12:00,
2013-03-07 19:17:00,42.4,29.0,29.89,SSW,202,1.6,4.0,59,0.00,,,0.04,Rainwise IP-100,2013-03-08 00:17:00,
2013-03-07 19:22:00,42.3,29.0,29.89,WSW,247,0.0,4.4,59,0.00,,,0.04,Rainwise IP-100,2013-03-08 00:22:00,
2013-03-07 19:27:00,42.1,29.0,29.89,SW,225,0.0,2.6,60,0.00,,,0.04,Rainwise IP-100,2013-03-08 00:27:00,
2013-03-07 19:32:00,41.9,29.0,29.90,WSW,247,1.4,2.3,61,0.00,,,0.04,Rainwise IP-100,2013-03-08 00:32:00,
2013-03-07 19:38:00,41.7,29.0,29.89,SW,225,0.0,3.7,61,0.00,,,0.04,Rainwise IP-100,2013-03-08 00:38:00,
2013-03-07 19:43:00,41.7,29.0,29.89,SW,225,1.2,3.0,61,0.00,,,0.04,Rainwise IP-100,2013-03-08 00:43:00,
2013-03-07 19:48:00,41.5,31.0,29.90,WSW,247,1.4,4.0,62,0.00,,,0.04,Rainwise IP-100,2013-03-08 00:48:00,
2013-03-07 19:53:00,41.4,29.0,29.89,SW,225,2.6,4.2,62,0.00,,,0.04,Rainwise IP-100,2013-03-08 00:53:00,
2013-03-07 19:58:00,41.3,29.0,29.90,WSW,247,2.8,3.0,62,0.00,,,0.04,Rainwise IP-100,2013-03-08 00:58:00,
2013-03-07 20:03:00,41.1,29.0,29.90,SW,225,1.6,3.7,62,0.00,,,0.04,Rainwise IP-100,2013-03-08 01:03:00,
2013-03-07 20:08:00,41.0,29.0,29.90,WSW,247,0.0,4.0,62,0.00,,,0.04,Rainwise IP-100,2013-03-08 01:08:00,
2013-03-07 20:13:00,40.8,29.0,29.90,WSW,247,0.0,2.6,63,0.00,,,0.04,Rainwise IP-100,2013-03-08 01:13:00,
2013-03-07 20:18:00,40.6,31.0,29.90,West,270,0.0,3.0,64,0.00,,,0.04,Rainwise IP-100,2013-03-08 01:18:00,
2013-03-07 20:24:00,40.4,29.0,29.90,SSW,202,0.0,3.3,65,0.00,,,0.04,Rainwise IP-100,2013-03-08 01:24:00,
2013-03-07 20:30:00,40.4,29.0,29.90,SW,225,1.2,3.0,65,0.00,,,0.04,Rainwise IP-100,2013-03-08 01:30:00,
2013-03-07 20:35:00,40.3,29.0,29.90,WSW,247,1.4,3.0,65,0.00,,,0.04,Rainwise IP-100,2013-03-08 01:35:00,
2013-03-07 20:40:00,40.3,29.0,29.90,WSW,247,0.0,3.0,65,0.00,,,0.04,Rainwise IP-100,2013-03-08 01:40:00,
2013-03-07 20:45:00,40.2,29.0,29.89,WSW,247,1.2,3.3,65,0.00,,,0.04,Rainwise IP-100,2013-03-08 01:45:00,
2013-03-07 20:50:00,40.2,29.0,29.90,WSW,247,0.0,4.0,65,0.00,,,0.04,Rainwise IP-100,2013-03-08 01:50:00,
2013-03-07 20:55:00,40.1,29.0,29.90,SW,225,0.0,4.0,65,0.00,,,0.04,Rainwise IP-100,2013-03-08 01:55:00,
2013-03-07 21:00:00,40.1,31.0,29.90,SSW,202,0.0,4.4,66,0.00,,,0.04,Rainwise IP-100,2013-03-08 02:00:00,
2013-03-07 21:05:00,40.1,31.0,29.89,SW,225,0.0,4.7,66,0.00,,,0.04,Rainwise IP-100,2013-03-08 02:05:00,
2013-03-07 21:10:00,40.0,31.0,29.89,West,270,1.2,4.2,66,0.00,,,0.04,Rainwise IP-100,2013-03-08 02:10:00,
2013-03-07 21:15:00,39.9,31.0,29.90,SW,225,0.0,3.5,66,0.00,,,0.04,Rainwise IP-100,2013-03-08 02:15:00,
2013-03-07 21:20:00,39.9,31.0,29.90,WSW,247,1.9,2.6,66,0.00,,,0.04,Rainwise IP-100,2013-03-08 02:20:00,
2013-03-07 21:26:00,39.8,31.0,29.89,WSW,247,0.0,4.2,66,0.00,,,0.04,Rainwise IP-100,2013-03-08 02:26:00,
2013-03-07 21:32:00,39.6,31.0,29.90,SW,225,1.4,2.6,66,0.00,,,0.04,Rainwise IP-100,2013-03-08 02:32:00,
2013-03-07 21:37:00,39.4,29.0,29.90,WSW,247,0.0,2.1,66,0.00,,,0.04,Rainwise IP-100,2013-03-08 02:37:00,
2013-03-07 21:42:00,39.2,29.0,29.89,WSW,247,1.4,2.8,67,0.00,,,0.04,Rainwise IP-100,2013-03-08 02:42:00,
2013-03-07 21:47:00,39.1,29.0,29.89,SW,225,1.2,2.3,67,0.00,,,0.04,Rainwise IP-100,2013-03-08 02:47:00,
2013-03-07 21:52:00,38.9,29.0,29.90,WSW,247,0.0,2.8,67,0.00,,,0.04,Rainwise IP-100,2013-03-08 02:52:00,
2013-03-07 21:57:00,38.9,29.0,29.90,WSW,247,1.2,2.3,68,0.00,,,0.04,Rainwise IP-100,2013-03-08 02:57:00,
2013-03-07 22:02:00,38.7,29.0,29.90,WSW,247,1.6,2.6,68,0.00,,,0.04,Rainwise IP-100,2013-03-08 03:02:00,
2013-03-07 22:07:00,38.6,29.0,29.90,SW,225,2.3,2.6,68,0.00,,,0.04,Rainwise IP-100,2013-03-08 03:07:00,
2013-03-07 22:12:00,38.5,31.0,29.90,WSW,247,0.0,2.6,69,0.00,,,0.04,Rainwise IP-100,2013-03-08 03:12:00,
2013-03-07 22:17:00,38.5,31.0,29.90,WSW,247,1.4,4.4,69,0.00,,,0.04,Rainwise IP-100,2013-03-08 03:17:00,
2013-03-07 22:22:00,38.5,31.0,29.89,WSW,247,0.0,4.4,69,0.00,,,0.04,Rainwise IP-100,2013-03-08 03:22:00,
2013-03-07 22:27:00,38.5,31.0,29.89,SW,225,1.2,4.7,69,0.00,,,0.04,Rainwise IP-100,2013-03-08 03:27:00,
2013-03-07 22:33:00,38.5,31.0,29.89,WNW,292,0.0,4.7,69,0.00,,,0.04,Rainwise IP-100,2013-03-08 03:33:00,
2013-03-07 22:38:00,38.4,29.0,29.90,WSW,247,2.3,4.0,69,0.00,,,0.04,Rainwise IP-100,2013-03-08 03:38:00,
2013-03-07 22:43:00,38.4,29.0,29.89,WSW,247,2.6,3.0,69,0.00,,,0.04,Rainwise IP-100,2013-03-08 03:43:00,
2013-03-07 22:48:00,38.4,29.0,29.89,WSW,247,1.4,4.7,69,0.00,,,0.04,Rainwise IP-100,2013-03-08 03:48:00,
2013-03-07 22:53:00,38.4,29.0,29.89,SW,225,0.0,3.3,69,0.00,,,0.04,Rainwise IP-100,2013-03-08 03:53:00,
2013-03-07 22:59:00,38.3,29.0,29.89,WSW,247,0.0,3.7,70,0.00,,,0.04,Rainwise IP-100,2013-03-08 03:59:00,
2013-03-07 23:04:00,38.3,29.0,29.90,SW,225,1.2,3.7,70,0.00,,,0.04,Rainwise IP-100,2013-03-08 04:04:00,
2013-03-07 23:09:00,38.2,29.0,29.90,WSW,247,0.0,3.5,71,0.00,,,0.04,Rainwise IP-100,2013-03-08 04:09:00,
2013-03-07 23:14:00,38.1,29.0,29.90,SW,225,1.2,3.5,71,0.00,,,0.04,Rainwise IP-100,2013-03-08 04:14:00,
2013-03-07 23:19:00,37.9,29.0,29.90,SW,225,1.2,3.3,71,0.00,,,0.04,Rainwise IP-100,2013-03-08 04:19:00,
2013-03-07 23:24:00,37.9,29.0,29.90,SW,225,0.0,3.7,71,0.00,,,0.04,Rainwise IP-100,2013-03-08 04:24:00,
2013-03-07 23:29:00,37.8,29.0,29.90,SW,225,1.4,2.1,71,0.00,,,0.04,Rainwise IP-100,2013-03-08 04:29:00,
2013-03-07 23:35:00,37.6,31.0,29.90,SW,225,0.0,2.3,72,0.00,,,0.04,Rainwise IP-100,2013-03-08 04:35:00,
2013-03-07 23:40:00,37.4,29.0,29.90,WSW,247,0.0,3.7,72,0.00,,,0.04,Rainwise IP-100,2013-03-08 04:40:00,
2013-03-07 23:45:00,37.4,29.0,29.90,WSW,247,0.0,3.3,72,0.00,,,0.04,Rainwise IP-100,2013-03-08 04:45:00,
2013-03-07 23:50:00,37.3,29.0,29.90,WSW,247,0.0,3.0,72,0.00,,,0.04,Rainwise IP-100,2013-03-08 04:50:00,
2013-03-07 23:55:00,37.2,29.0,29.89,SSW,202,0.0,3.5,73,0.00,,,0.04,Rainwise IP-100,2013-03-08 04:55:00,